Regional Weather Roundup
Issued by NWS

Home | Current Version | Previous Version | Graphics & Text | Print | Product List | Glossary On
Versions: 1 2 3 4 5 6 7 8 9 10 11 12 13 14 15 16 17 18 19 20 21 22 23 24 25 26 27 28 29 30 31 32 33 34 35 36 37 38 39 40 41 42 43 44 45 46 47 48 49 50
000
ASUS43 KLOT 180100
RWRIL

ILLINOIS REGIONAL WEATHER ROUNDUP
NATIONAL WEATHER SERVICE CHICAGO/ROMEOVILLE IL
800 PM CDT WED SEP 17 2014

NOTE: "FAIR" INDICATES FEW OR NO CLOUDS BELOW 12,000 FEET WITH NO
SIGNIFICANT WEATHER AND/OR OBSTRUCTIONS TO VISIBILITY.

* THESE STATIONS ARE NOT UNDER NWS QUALITY CONTROL. THEY ALSO MAY NOT
  REPORT WEATHER SUCH AS PRECIPITATION OR FOG.

ILZ001-002-007-009-015-016-024-180200-
NORTHWEST ILLINOIS

CITY           SKY/WX    TMP DP  RH WIND       PRES   REMARKS
MOLINE         CLEAR     56  52  86 CALM      29.97R
STERLING*      CLEAR     55  50  82 CALM      29.98R
$$

ILZ003-004-008-010-011-017-018-180200-
NORTH CENTRAL ILLINOIS

CITY           SKY/WX    TMP DP  RH WIND       PRES   REMARKS
ROCKFORD       CLEAR     60  52  74 CALM      30.01R
$$

ILZ005-006-012>014-019>023-180200-
NORTHEAST ILLINOIS

CITY           SKY/WX    TMP DP  RH WIND       PRES   REMARKS
CHICAGO-OHARE  CLEAR     63  46  54 E5        29.99R
CHICAGO-MIDWAY CLEAR     64  49  57 E6        29.99R
AURORA         CLEAR     57  50  77 CALM      29.99R
WAUKEGAN       CLEAR     52  49  89 CALM      29.99R
DUPAGE AIRPORT CLEAR     59  48  67 NE7       29.98R
WHEELING       CLEAR     60  49  66 CALM      30.01R
NORTHERLY ISL    N/A     61  52  72 E5          N/A
$$

LMZ740>746-180200-
SOUTHERN LAKE MICHIGAN

STATION/POSITION SKY/WX   TEMP    WIND        PRES    VSBY  WAVE
                          AIR SEA DIR/SP/G                  HT/PER
                          (F)     (DEG/KT/KT) (MB)    (MI)  (FT/S)
SOUTHERN BUOY              62 63  150/  4/  6 1015.8R         1
WAUKEGAN HARBOR            61     160/  5/  6   N/A
HARRISON CRIB              62      90/ 11/ 12   N/A
BURNHAM HARBOR             61     100/  4/  9   N/A
CALUMET HARBOR             63      70/  7/  9 1014.2R
MICHIGAN CITY              62      50/  8/  9   N/A
MICHIGAN CITY 6N           63 65   80/  8/ 10   N/A           1/ 2
ST. JOSEPH                 63 66   70/  6/  6   N/A           0
$$

ILZ025>027-034>036-040-047-049-050-058-095>099-180200-
WEST-CENTRAL ILLINOIS

CITY           SKY/WX    TMP DP  RH WIND       PRES   REMARKS
QUINCY         CLOUDY    64  57  78 SE6       29.97R
$$

ILZ028>032-037-038-041>044-048-051>054-059>061-180200-
CENTRAL ILLINOIS

CITY           SKY/WX    TMP DP  RH WIND       PRES   REMARKS
DECATUR        CLOUDY    61  54  77 S6        29.99R
PEORIA         CLOUDY    60  53  77 CALM      29.99R
SPRINGFIELD    CLOUDY    61  52  72 S5        29.99R
TAYLORVILLE    NOT AVBL
$$

ILZ033-039-045-046-055>057-062-063-180200-
EAST-CENTRAL ILLINOIS

CITY           SKY/WX    TMP DP  RH WIND       PRES   REMARKS
CHAMPAIGN      MOCLDY    58  53  84 SW6       29.99R
MATTOON        PTCLDY    58  52  80 SW3       29.99R
$$

ILZ079-100>102-180200-
SOUTHWEST ILLINOIS

CITY           SKY/WX    TMP DP  RH WIND       PRES   REMARKS
ALTON          CLOUDY    61  55  82 E7        29.98R
BELLEVILLE     CLOUDY    62  58  88 CALM      29.96S
CAHOKIA*       CLOUDY    64  57  78 CALM      29.96S
$$

ILZ064>066-069>071-074>076-080>082-084>086-088>090-092>094-180200-
SOUTH-CENTRAL ILLINOIS

CITY           SKY/WX    TMP DP  RH WIND       PRES   REMARKS
CARBONDALE     CLOUDY    64  57  78 SW5       29.96S
MT. VERNON     CLOUDY    63  55  77 CALM      29.97S
$$

ILZ067-068-072-073-078-083-087-091-180200-
SOUTHEAST ILLINOIS

CITY           SKY/WX    TMP DP  RH WIND       PRES   REMARKS
LAWRENCEVILLE  MOCLDY    61  57  87 NW6       29.99R
FLORA*         MOCLDY    62  55  80 NE3       29.98R
$$

ABBREVIATIONS USED IN REMARKS
   TC - TEMPERATURE IN CELSIUS
  WCI - WIND CHILL INDEX
   HX - HEAT INDEX
  VSB - VISIBILITY
$$



USA.gov is the U.S. government's official web portal to all federal, state and local government web resources and services.